Regional Weather Roundup
Issued by NWS Midland/Odessa, TX

Skip options and go directly to product.
Home | Oldest Version | Next Version | Current Version | All | Text Only | Save Text | Print | Product List | Glossary On

Skip product version selection by date and time.   
202
ASUS44 KMAF 100210
RWRMAF
MIDLAND AREA WEATHER ROUNDUP
NATIONAL WEATHER SERVICE MIDLAND TX
800 PM CST TUE FEB 09 2016

...IN SOUTHWEST TEXAS AND SOUTHEAST NEW MEXICO...

CITY           SKY/WX    TMP DP  RH WIND       PRES   REMARKS
ALPINE         CLEAR     42  16  34 W5        30.39R WCI  39
ANDREWS        FAIR     N/A N/A N/A S5        30.32S
ARTESIA        CLEAR     48  21  34 CALM      30.32R
BIG SPRING     CLEAR     46  22  39 E3        30.33R
CARLSBAD       CLEAR     42  22  44 SW7       30.30R WCI  38
DRYDEN           N/A     55  18  23 SE3       30.29R
FORT STOCKTON  CLEAR     50  26  39 NE8       30.31R
GUAD PASS      CLEAR     54   7  15 CALM      30.36R
HOBBS          CLEAR     48  16  27 S7        30.33R
MARFA          CLEAR     38  10  31 N5        30.36R WCI  34
MIDLAND AIRPK  CLEAR     57  23  26 SW6       30.32S
MIDLAND INTL   CLEAR     54  22  28 S6        30.31S
ODESSA         CLEAR     55  20  25 S6        30.32S
PECOS          CLEAR     51  23  34 NE7       30.30R
PRESIDIO       FAIR      55  19  24 NW5       30.28R
SEMINOLE       CLEAR     49  21  33 SW5       30.32S
SNYDER           N/A     55  23  28 W6        30.30S
WINK           CLEAR     50  22  33 E6        30.30R
$$
...OTHER STATIONS IN TEXAS...

CITY           SKY/WX    TMP DP  RH WIND       PRES   REMARKS
ABILENE        CLEAR     58  28  32 NE7       30.28R
AMARILLO       CLEAR     47  21  35 N6        30.32R
AUSTIN         CLEAR     53  31  42 CALM      30.26R
BROWNSVILLE    CLEAR     53  39  59 S5        30.34R
CORPUS CHRISTI CLEAR     54  29  38 S7        30.30R
DALLAS FTW     PTCLDY    51  26  37 N12       30.27R
DEL RIO        CLEAR     63  23  21 NE6       30.28R
EL PASO        CLEAR     57  18  21 NW5       30.29R
HOUSTON INT    CLEAR     51  35  54 CALM      30.25R
LUBBOCK        CLEAR     47  18  31 N9        30.31R
SAN ANGELO     CLEAR     51  25  36 W6        30.29R
SAN ANTONIO    CLEAR     56  32  40 NW3       30.27R
WACO           CLEAR     53  28  38 N8        30.27R
WICHITA FALLS  NOT AVBL
$$
...OTHER LOCATIONS IN NEW MEXICO...

CITY           SKY/WX    TMP DP  RH WIND       PRES   REMARKS
ALAMAGORDO     CLEAR     48  14  25 NE5       30.31R
ALBUQUERQUE    CLEAR     53  18  25 NE10      30.35R
CANNON AFB     NOT AVBL
CLOVIS         CLEAR     41  16  36 CALM      30.34R
HOLLOMAN AFB   CLEAR     48  17  29 N6        30.29R
ROSWELL        CLEAR     49  20  31 S5        30.31R
RUIDOSO          N/A     45  16  31 S6        30.40R
SANTA FE       CLEAR     43  18  36 N5        30.36R
TRUTH OR CONSE CLEAR     56  16  20 S3        30.31R
TUCUMCARI      CLEAR     41  15  35 NE5       30.32R WCI  38
$$

USA.gov is the U.S. government's official web portal to all federal, state and local government web resources and services.